Starlink 32702

operational
NORAD ID: 62432 Int'l Des: 2024-251 Owner: SPXS Country: US Constellation: starlink
LEOCIRCULAR

Starlink 32702について

説明を読み込み中...

リアルタイム位置

3D地球を読み込み中...

次回通過

高度履歴

Altitude vs Time

uPlot chart will show altitude changes over time

軌道要素

1 62432U 24251A 25304.07212646 .00054696 00000-0 18427-2 0 9997
2 62432 53.1589 214.5082 0001321 99.6276 260.4874 15.30245944 48143
Epoch: Oct 31, 2025 • Age: 36 hours

現在のステータス

高度 475.2 km
速度 7.63 km/s
衛星直下点 3.92°N, 37.69°W
打ち上げ日 Dec 29, 2024
運用期間 0.8 years
タイプ internet

技術仕様

分類 Payload
質量 730.00 kg
乾燥質量 700.00 kg
総質量 730.00 kg
長さ 0.30 m
直径 4.10 m
スパン 29.00 m
形状 Box + pan
製造者 SPXS
バスタイプ Starlink V2M
フェーズステータス In Orbit
所有者/国 SPXS/US

大規模コンステレーション

Loading constellations...